TimeEST,TemperatureF,Dew PointF,Humidity,Sea Level PressureIn,VisibilityMPH,Wind Direction,Wind SpeedMPH,Gust SpeedMPH,PrecipitationIn,Events,Conditions,WindDirDegrees,DateUTC
12:17 AM,21.6,7.9,56,30.53,10.0,NNW,9.2,-,N/A,,Clear,330,2013-01-25 05:17:00
12:38 AM,21.4,7.7,56,30.53,10.0,NNW,8.1,-,N/A,,Clear,330,2013-01-25 05:38:00
1:00 AM,20.8,7.7,57,30.53,10.0,NNW,8.1,-,N/A,,Clear,330,2013-01-25 06:00:00
1:21 AM,21.2,8.2,57,30.53,10.0,NNW,10.4,-,N/A,,Clear,340,2013-01-25 06:21:00
1:42 AM,21.2,7.5,56,30.53,10.0,North,5.8,-,N/A,,Clear,350,2013-01-25 06:42:00
2:03 AM,20.8,7.7,57,30.53,10.0,NNW,4.6,-,N/A,,Clear,340,2013-01-25 07:03:00
2:25 AM,19.4,8.6,63,30.53,10.0,NNW,4.6,-,N/A,,Clear,340,2013-01-25 07:25:00
2:46 AM,18.9,9.1,66,30.52,10.0,North,3.5,-,N/A,,Clear,360,2013-01-25 07:46:00
3:07 AM,17.6,9.0,69,30.53,10.0,Calm,Calm,-,N/A,,Clear,0,2013-01-25 08:07:00
3:29 AM,18.5,9.1,67,30.52,10.0,Calm,Calm,-,N/A,,Clear,0,2013-01-25 08:29:00
3:50 AM,19.6,7.2,59,30.52,10.0,NNE,8.1,-,N/A,,Clear,20,2013-01-25 08:50:00
4:11 AM,19.4,6.4,57,30.52,10.0,NNE,4.6,-,N/A,,Clear,20,2013-01-25 09:11:00
4:33 AM,18.5,6.8,60,30.50,10.0,NNE,5.8,-,N/A,,Clear,30,2013-01-25 09:33:00
4:54 AM,19.2,6.4,58,30.51,10.0,NNE,4.6,-,N/A,,Clear,20,2013-01-25 09:54:00
5:15 AM,19.0,7.0,59,30.52,10.0,Calm,Calm,-,N/A,,Clear,0,2013-01-25 10:15:00
5:36 AM,19.2,6.6,58,30.51,10.0,NNE,5.8,-,N/A,,Clear,20,2013-01-25 10:36:00
5:50 AM,19.4,6.8,58,30.53,10.0,North,4.6,-,N/A,,Clear,360,2013-01-25 10:50:00
5:58 AM,19.2,5.5,55,30.52,10.0,North,4.6,-,N/A,,Clear,360,2013-01-25 10:58:00
6:19 AM,19.4,5.4,55,30.52,10.0,NNE,3.5,-,N/A,,Clear,20,2013-01-25 11:19:00
6:24 AM,19.4,5.0,54,30.52,10.0,North,3.5,-,N/A,,Clear,10,2013-01-25 11:24:00
6:48 AM,19.4,6.8,58,30.51,10.0,NE,3.5,-,N/A,,Overcast,40,2013-01-25 11:48:00
7:50 AM,19.4,6.8,58,30.50,10.0,Calm,Calm,-,N/A,,Overcast,0,2013-01-25 12:50:00
8:50 AM,21.2,6.8,54,30.50,10.0,Calm,Calm,-,N/A,,Overcast,0,2013-01-25 13:50:00
9:50 AM,23.0,5.0,46,30.47,10.0,Calm,Calm,-,N/A,,Overcast,0,2013-01-25 14:50:00
10:48 AM,24.8,6.8,46,30.44,10.0,Calm,Calm,-,N/A,,Overcast,0,2013-01-25 15:48:00
11:52 AM,24.8,8.6,50,30.41,10.0,SW,4.6,-,N/A,,Overcast,230,2013-01-25 16:52:00
12:50 PM,24.8,10.4,54,30.36,10.0,SSW,6.9,-,N/A,,Overcast,210,2013-01-25 17:50:00
1:52 PM,24.8,10.4,54,30.31,10.0,SSW,5.8,-,N/A,,Overcast,200,2013-01-25 18:52:00
2:55 PM,26.6,8.6,47,30.26,10.0,SSW,6.9,-,N/A,,Overcast,200,2013-01-25 19:55:00
3:10 PM,24.8,12.2,59,30.24,1.5,SSW,6.9,-,N/A,Snow,Light Snow,200,2013-01-25 20:10:00
3:49 PM,24.8,12.2,59,30.23,4.0,SSW,8.1,-,N/A,Snow,Light Snow,200,2013-01-25 20:49:00
4:52 PM,23.0,19.4,86,30.23,1.8,SW,8.1,-,N/A,Snow,Light Snow,220,2013-01-25 21:52:00
5:51 PM,21.2,21.2,100,30.19,1.8,South,4.6,-,N/A,Snow,Light Snow,190,2013-01-25 22:51:00
6:50 PM,21.2,21.2,100,30.18,5.0,SSW,6.9,-,N/A,Snow,Light Snow,200,2013-01-25 23:50:00
7:50 PM,23.0,21.2,93,30.16,10.0,WSW,6.9,-,N/A,,Overcast,240,2013-01-26 00:50:00
8:50 PM,23.0,21.2,93,30.13,10.0,West,3.5,-,N/A,,Overcast,260,2013-01-26 01:50:00
9:54 PM,22.1,18.9,87,30.12,10.0,WNW,3.5,-,N/A,,Mostly Cloudy,300,2013-01-26 02:54:00
10:15 PM,21.7,19.2,90,30.13,10.0,WNW,3.5,-,N/A,,Mostly Cloudy,290,2013-01-26 03:15:00
10:36 PM,22.1,19.4,89,30.12,10.0,WNW,3.5,-,N/A,,Mostly Cloudy,290,2013-01-26 03:36:00
10:57 PM,22.1,19.6,90,30.12,10.0,NW,4.6,-,N/A,,Overcast,310,2013-01-26 03:57:00
11:19 PM,22.1,19.6,90,30.12,10.0,WNW,3.5,-,N/A,,Overcast,290,2013-01-26 04:19:00
11:40 PM,21.2,19.2,92,30.12,10.0,WNW,3.5,-,N/A,,Overcast,300,2013-01-26 04:40:00